Weather History for Ely, MN

Change the Weather History Date:

Friday, March 2, 2012

  Actual Average Record
Temperature  
Mean Temperature 30 °F -  
Max Temperature 35 °F 23 °F 44 °F (2001)
Min Temperature 26 °F 4 °F -29 °F (2009)
Degree Days  
Heating Degree Days 34    
Moisture  
Dew Point 24 °F    
Average Humidity 79    
Maximum Humidity 93    
Minimum Humidity 56    
Precipitation  
Precipitation 0.00 in - - ()
Sea Level Pressure  
Sea Level Pressure 29.59 in    
Wind  
Wind Speed 4 mph (SSE)    
Max Wind Speed 9 mph    
Max Gust Speed -    
Visibility 9 miles    
Events Snow    
Averages and records for this station are not official NWS values.
T = Trace of Precipitation, MM = Missing Value Source: NWS Daily Summary

Daily Weather History Graph

Daily Weather History Graph

Search for Another Location

Airport:

Trip Planner

Search our weather history database for the weather conditions in past years. The results will help you decide how hot, cold, wet, or windy it might be!

Date:

Astronomy

Mar. 02, 2012 Rise Set
Actual Time 6:45 AM CST 5:54 PM CST
Civil Twilight 6:14 AM CST 6:25 PM CST
Nautical Twilight 5:38 AM CST 7:01 PM CST
Astronomical Twilight 5:02 AM CST 7:37 PM CST
Moon 11:46 AM CST (3/2) 2:55 AM CST (3/2)
Length of Visible Light 12h 11m
Length of Day
11h 09m
Waxing Gibbous, 66% of the Moon is Illuminated
Mar 2
Waxing Gibbous
Mar 8
Full
Mar 14
Last Quarter
Mar 22
New
Mar 30
First Quarter

Hourly Weather History & Observations

Time (CST) Temp. Windchill Dew Point Humidity Pressure Visibility Wind Dir Wind Speed Gust Speed Precip Events Conditions
12:13 AM 28.4 °F 24.6 °F 24.8 °F 86% 29.69 in 10.0 mi ESE 3.5 mph - N/A   Overcast
12:33 AM 28.4 °F - 24.8 °F 86% 29.68 in 10.0 mi Calm Calm - N/A   Overcast
12:52 AM 26.6 °F 21.2 °F 24.8 °F 93% 29.68 in 10.0 mi SE 4.6 mph - N/A   Overcast
1:13 AM 26.6 °F - 24.8 °F 93% 29.68 in 10.0 mi Calm Calm - N/A   Overcast
1:33 AM 28.4 °F 23.3 °F 24.8 °F 86% 29.67 in 10.0 mi SSE 4.6 mph - N/A   Overcast
1:52 AM 28.4 °F 23.3 °F 24.8 °F 86% 29.66 in 7.0 mi SE 4.6 mph - N/A Snow Light Snow
2:13 AM 28.4 °F 24.6 °F 24.8 °F 86% 29.66 in 7.0 mi SSE 3.5 mph - N/A Snow Light Snow
2:33 AM 28.4 °F 24.6 °F 24.8 °F 86% 29.66 in 5.0 mi SSE 3.5 mph - N/A Snow Light Snow
2:52 AM 28.4 °F 23.3 °F 24.8 °F 86% 29.65 in 4.0 mi SSE 4.6 mph - N/A Snow Light Snow
3:13 AM 28.4 °F 24.6 °F 24.8 °F 86% 29.65 in 7.0 mi SSE 3.5 mph - N/A Snow Light Snow
3:33 AM 28.4 °F 24.6 °F 24.8 °F 86% 29.64 in 10.0 mi SE 3.5 mph - N/A   Overcast
3:52 AM 26.6 °F 21.2 °F 24.8 °F 93% 29.63 in 10.0 mi SE 4.6 mph - N/A   Overcast
4:13 AM 28.4 °F 22.2 °F 24.8 °F 86% 29.63 in 10.0 mi SSE 5.8 mph - N/A   Overcast
4:33 AM 28.4 °F 23.3 °F 24.8 °F 86% 29.63 in 10.0 mi SSE 4.6 mph - N/A   Overcast
4:52 AM 28.4 °F 22.2 °F 24.8 °F 86% 29.63 in 10.0 mi SSE 5.8 mph - N/A   Overcast
5:13 AM 28.4 °F 23.3 °F 26.6 °F 93% 29.62 in 3.0 mi SSE 4.6 mph - N/A Snow Light Snow
5:33 AM 28.4 °F 22.2 °F 26.6 °F 93% 29.62 in 4.0 mi SSE 5.8 mph - N/A   Overcast
5:52 AM 28.4 °F 22.2 °F 26.6 °F 93% 29.62 in 3.0 mi SSE 5.8 mph - N/A Snow Light Snow
6:12 AM 28.4 °F 23.3 °F 26.6 °F 93% 29.62 in 4.0 mi SSE 4.6 mph - N/A   Overcast
6:33 AM 28.4 °F 23.3 °F 26.6 °F 93% 29.62 in 5.0 mi SSE 4.6 mph - N/A   Overcast
6:52 AM 28.4 °F 23.3 °F 26.6 °F 93% 29.62 in 7.0 mi SSE 4.6 mph - N/A   Overcast
7:12 AM 28.4 °F 23.3 °F 26.6 °F 93% 29.62 in 10.0 mi SSE 4.6 mph - N/A   Overcast
7:33 AM 28.4 °F 23.3 °F 26.6 °F 93% 29.61 in 7.0 mi SSE 4.6 mph - N/A   Overcast
7:52 AM 28.4 °F 24.6 °F 26.6 °F 93% 29.61 in 10.0 mi South 3.5 mph - N/A   Overcast
8:12 AM 28.4 °F - 26.6 °F 93% 29.61 in 5.0 mi Calm Calm - N/A Snow Light Snow
8:33 AM 30.2 °F - 26.6 °F 86% 29.60 in 10.0 mi Calm Calm - N/A Snow Light Snow
8:53 AM 30.2 °F 25.4 °F 26.6 °F 86% 29.60 in 10.0 mi SSE 4.6 mph - N/A   Mostly Cloudy
9:12 AM 30.2 °F 24.3 °F 26.6 °F 86% 29.61 in 10.0 mi South 5.8 mph - N/A   Scattered Clouds
9:33 AM 30.2 °F 22.6 °F 26.6 °F 86% 29.59 in 10.0 mi SSE 8.1 mph - N/A   Mostly Cloudy
9:53 AM 30.2 °F 24.3 °F 24.8 °F 80% 29.59 in 10.0 mi South 5.8 mph - N/A   Overcast
10:12 AM 30.2 °F 25.4 °F 24.8 °F 80% 29.58 in 10.0 mi SSE 4.6 mph - N/A   Overcast
10:33 AM 32.0 °F 26.4 °F 24.8 °F 75% 29.59 in 10.0 mi SSW 5.8 mph - N/A   Overcast
10:53 AM 32.0 °F 26.4 °F 24.8 °F 75% 29.59 in 10.0 mi SSE 5.8 mph - N/A   Overcast
11:12 AM 33.8 °F 27.7 °F 24.8 °F 70% 29.59 in 10.0 mi SE 6.9 mph - N/A   Overcast
11:33 AM 33.8 °F 27.7 °F 23.0 °F 65% 29.58 in 10.0 mi SSE 6.9 mph - N/A   Overcast
11:53 AM 33.8 °F 28.6 °F 23.0 °F 65% 29.58 in 10.0 mi SSE 5.8 mph - N/A   Overcast
12:12 PM 33.8 °F 30.8 °F 23.0 °F 65% 29.57 in 10.0 mi SSE 3.5 mph - N/A   Overcast
12:33 PM 33.8 °F - 23.0 °F 65% 29.56 in 10.0 mi Calm Calm - N/A   Overcast
12:53 PM 33.8 °F - 23.0 °F 65% 29.55 in 10.0 mi Calm Calm - N/A   Overcast
1:12 PM 33.8 °F 30.8 °F 23.0 °F 65% 29.54 in 10.0 mi SSE 3.5 mph - N/A   Overcast
1:33 PM 33.8 °F 28.6 °F 21.2 °F 60% 29.53 in 10.0 mi ESE 5.8 mph - N/A   Overcast
1:53 PM 33.8 °F 30.8 °F 21.2 °F 60% 29.52 in 10.0 mi SE 3.5 mph - N/A   Overcast
2:12 PM 33.8 °F 28.6 °F 21.2 °F 60% 29.51 in 10.0 mi SE 5.8 mph - N/A   Overcast
2:33 PM 35.6 °F 29.9 °F 21.2 °F 56% 29.50 in 10.0 mi SE 6.9 mph - N/A   Overcast
2:53 PM 35.6 °F 28.6 °F 21.2 °F 56% 29.50 in 10.0 mi SSE 9.2 mph - N/A   Overcast
3:12 PM 33.8 °F 26.4 °F 23.0 °F 65% 29.50 in 10.0 mi SSE 9.2 mph - N/A   Overcast
3:33 PM 33.8 °F 27.7 °F 23.0 °F 65% 29.50 in 10.0 mi South 6.9 mph - N/A   Overcast
3:53 PM 33.8 °F 28.6 °F 24.8 °F 70% 29.51 in 10.0 mi South 5.8 mph - N/A   Overcast
4:12 PM 33.8 °F 29.6 °F 23.0 °F 65% 29.51 in 10.0 mi South 4.6 mph - N/A   Overcast
4:33 PM 33.8 °F 29.6 °F 23.0 °F 65% 29.51 in 10.0 mi South 4.6 mph - N/A   Overcast
4:53 PM 33.8 °F 28.6 °F 23.0 °F 65% 29.51 in 10.0 mi South 5.8 mph - N/A   Overcast
5:12 PM 32.0 °F 27.5 °F 23.0 °F 69% 29.50 in 10.0 mi South 4.6 mph - N/A   Overcast
5:33 PM 32.0 °F 28.7 °F 23.0 °F 69% 29.51 in 10.0 mi South 3.5 mph - N/A   Overcast
5:52 PM 32.0 °F 28.7 °F 23.0 °F 69% 29.51 in 10.0 mi SSE 3.5 mph - N/A   Overcast
6:13 PM 32.0 °F 26.4 °F 23.0 °F 69% 29.51 in 10.0 mi SSE 5.8 mph - N/A   Overcast
6:33 PM 30.2 °F 22.6 °F 24.8 °F 80% 29.51 in 10.0 mi SSE 8.1 mph - N/A   Overcast
6:52 PM 30.2 °F 23.4 °F 24.8 °F 80% 29.51 in 10.0 mi SE 6.9 mph - N/A   Overcast
7:13 PM 30.2 °F 24.3 °F 24.8 °F 80% 29.51 in 10.0 mi SE 5.8 mph - N/A   Overcast
7:33 PM 30.2 °F - 24.8 °F 80% 29.50 in 10.0 mi Calm Calm - N/A   Overcast
7:52 PM 30.2 °F - 23.0 °F 75% 29.50 in 10.0 mi Calm Calm - N/A   Overcast
8:13 PM 30.2 °F - 23.0 °F 75% 29.50 in 10.0 mi Calm Calm - N/A   Overcast
8:32 PM 30.2 °F - 23.0 °F 75% 29.49 in 10.0 mi Calm Calm - N/A   Overcast
8:52 PM 30.2 °F - 23.0 °F 75% 29.49 in 10.0 mi Calm Calm - N/A   Overcast
9:13 PM 30.2 °F - 23.0 °F 75% 29.49 in 10.0 mi Calm Calm - N/A   Overcast
9:32 PM 28.4 °F - 23.0 °F 80% 29.49 in 10.0 mi Calm Calm - N/A   Overcast
9:52 PM 28.4 °F 24.6 °F 23.0 °F 80% 29.48 in 10.0 mi NE 3.5 mph - N/A   Overcast
10:13 PM 28.4 °F - 24.8 °F 86% 29.48 in 10.0 mi Calm Calm - N/A   Overcast
10:32 PM 28.4 °F - 24.8 °F 86% 29.47 in 10.0 mi Calm Calm - N/A   Overcast
10:52 PM 28.4 °F - 24.8 °F 86% 29.47 in 10.0 mi Calm Calm - N/A   Overcast
11:13 PM 28.4 °F 24.6 °F 24.8 °F 86% 29.47 in 10.0 mi ENE 3.5 mph - N/A   Mostly Cloudy
11:32 PM 28.4 °F - 24.8 °F 86% 29.47 in 10.0 mi Calm Calm - N/A   Scattered Clouds
11:52 PM 28.4 °F - 24.8 °F 86% 29.47 in 10.0 mi Calm Calm - N/A   Mostly Cloudy